Home   Weather   Paris Street Park   Past weeks
Flag for USA

Past Weather in Paris Street Park, Ohio, USA — Yesterday and Last 2 Weeks

Now
78 °F

Passing clouds.


Feels Like: 81 °F
Forecast: 91 / 76 °F
Wind: 5 mph from South

Location: Dayton / Wright-Patterson Air Force Base

Current Time: Jul 21, 2019 at 9:11:30 am

Latest Report: Jul 21, 2019 at 7:56 am


Visibility: 10 mi

Pressure: 29.96 "Hg

Humidity: 88%

Dew Point: 74 °F

Location of Paris Street ParkLocation

Past Weather in Paris Street Park — Graph

°F

Paris Street Park Temperature Yesterday

Maximum temperature yesterday: 94 °F (at 3:56 pm)
Minimum temperature yesterday: 76 °F (at 4:56 am)
Average temperature yesterday: 84 °F

High & Low Weather Summary for the Past Weeks

 TemperatureHumidityPressure
High94 °F (Jul 20, 3:56 pm)100% (Jul 7, 5:56 am)30.14 "Hg (Jul 7, 5:56 am)
Low59 °F (Jul 13, 3:56 am)32% (Jul 13, 2:56 pm)29.80 "Hg (Jul 11, 5:56 pm)
Average78 °F74%29.97 "Hg
* Reported Jul 6 7:56 am — Jul 21 7:56 am, Paris Street Park. Weather by CustomWeather, © 2019

Note: Actual official high and low records may vary slightly from our data, if they occured in-between our weather recording intervals... More about our weather records

Advertising

Paris Street Park Weather History for the Previous 24 Hours

Scroll right to see more
 ConditionsComfort  
Time TempWeatherWind HumidityBarometerVisibility
7:56 am
Sun, Jul 21
78 °FPassing clouds.5 mph88%29.96 "Hg10 mi
6:56 am76 °FSunny.No wind90%29.94 "Hg10 mi
5:56 am76 °FClear.No wind90%29.92 "Hg10 mi
4:56 am76 °FClear.No wind89%29.91 "Hg10 mi
3:56 am77 °FClear.3 mph89%29.91 "Hg10 mi
2:56 am78 °FClear.3 mph84%29.91 "Hg10 mi
1:56 am79 °FClear.7 mph82%29.92 "Hg10 mi
12:56 am78 °FClear.5 mph87%29.95 "Hg10 mi
11:56 pm
Sat, Jul 20
78 °FClear.No wind85%29.92 "Hg10 mi
10:56 pm78 °FClear.No wind87%29.92 "Hg10 mi
9:56 pm83 °FClear.No wind74%29.93 "Hg10 mi
8:56 pm85 °FSunny.6 mph67%29.93 "Hg10 mi
7:56 pm90 °FPassing clouds.8 mph58%29.92 "Hg10 mi
6:56 pm92 °FPassing clouds.13 mph54%29.92 "Hg10 mi
5:56 pm93 °FSunny.16 mph51%29.92 "Hg10 mi
4:56 pm93 °FScattered clouds.16 mph50%29.92 "Hg10 mi
3:56 pm94 °FPassing clouds.17 mph49%29.92 "Hg10 mi
3:07 pm93 °FScattered clouds.15 mph53%29.92 "Hg10 mi
2:56 pm93 °FScattered clouds.17 mph52%29.92 "Hg10 mi
1:56 pm91 °FScattered clouds.17 mph58%29.93 "Hg10 mi
12:56 pm89 °FScattered clouds.16 mph64%29.94 "Hg10 mi
12:26 pm88 °FScattered clouds.15 mph66%29.93 "Hg10 mi
11:56 am88 °FScattered clouds.14 mph69%29.95 "Hg10 mi
11:36 am88 °FPartly sunny.13 mph70%29.96 "Hg10 mi
10:56 am85 °FSunny.8 mph75%29.98 "Hg10 mi
9:56 am82 °FPassing clouds.5 mph80%29.98 "Hg10 mi
Weather by CustomWeather, © 2019

See weather overview